Temperature
22 21 20 20 21 21 21 22 22 22 22 22 21 21 20 20 20 19 19 19 19 19 18 18 18 18 18 18 17 18 17 17 17 17 17 17 17 17 17 17 17 17 17
21 20 20 19 19 19 20 20 21 22 22 22 21 20 20 20 19 19 19 19 18 18 18 18 18 18 17 17 17 17 17 17 17 17 17 17 17 17 17 17 17 17 17
19 19 18 18 18 18 18 19 20 21 21 21 21 20 20 19 19 19 19 18 18 18 18 17 17 17 17 17 17 17 17 17 17 17 17 17 17 17 17 17 17 17 17
18 18 17 17 17 17 17 18 19 20 20 20 20 20 20 19 19 19 19 18 18 17 17 17 17 17 17 17 17 17 17 17 16 17 16 16 17 17 17 17 17 17 17
17 17 16 16 16 16 16 17 18 18 19 20 20 19 19 19 18 18 18 17 17 17 17 17 17 17 17 16 16 16 16 16 16 16 16 16 16 16 16 17 17 17 17
15 15 15 15 15 15 16 16 17 17 18 18 19 19 18 18 18 17 17 17 17 16 16 16 16 16 16 16 16 16 16 16 16 16 16 16 16 16 16 16 16 17 17
14 14 14 14 14 15 15 15 16 16 16 17 17 17 17 17 17 17 16 16 16 16 16 16 16 16 16 16 16 16 16 16 16 16 16 16 16 16 16 16 16 16 16
13 13 13 13 14 14 14 15 15 15 15 16 16 16 16 16 16 16 16 16 16 15 15 16 16 16 16 16 16 16 16 16 16 16 16 16 16 15 15 15 15 15 16
12 13 13 13 13 13 14 14 14 14 15 15 15 15 15 15 15 15 15 15 15 15 15 15 15 16 16 16 16 16 16 16 16 16 15 15 15 15 15 15 15 15 15
12 12 13 13 13 13 13 14 14 14 14 14 14 14 15 15 14 14 15 15 15 15 15 16 16 16 16 16 16 16 16 16 16 15 15 15 15 15 15 15 15 15 15
12 12 12 13 13 13 13 13 14 14 14 14 14 14 14 14 14 15 15 15 15 15 15 16 16 16 16 16 16 16 16 15 15 15 15 15 14 14 14 14 14 14 14
12 12 12 12 13 13 13 13 13 13 13 14 14 14 14 14 14 14 15 15 15 15 15 16 16 16 16 16 15 15 15 15 15 15 15 15 15 14 14 14 14 14 14
13 13 12 12 12 13 13 13 13 13 13 13 14 14 14 14 14 14 15 15 15 15 15 15 16 16 16 15 15 15 15 15 15 15 15 15 14 14 14 14 14 14 14
13 13 13 13 13 13 13 13 13 13 13 13 13 14 14 14 14 14 15 15 15 15 15 15 15 15 15 15 15 15 15 15 15 15 15 15 14 14 14 14 14 14 14
14 14 14 14 13 13 13 13 13 13 13 13 13 13 13 14 14 14 14 15 15 15 15 15 15 15 15 15 15 15 15 15 15 15 15 15 15 14 14 14 14 14 14
14 14 14 14 14 14 13 13 13 12 12 12 13 13 13 13 13 13 14 14 14 14 14 15 15 15 15 15 15 15 15 15 15 15 15 15 15 15 14 14 14 14 14
14 14 14 14 14 14 14 13 13 12 12 12 12 12 12 12 13 13 13 13 13 13 13 14 14 14 14 14 15 15 15 15 15 15 15 15 14 14 14 14 14 14 14
14 14 14 14 14 14 14 14 13 12 12 12 12 12 12 12 12 12 12 12 12 12 12 13 13 13 13 14 14 14 15 15 14 14 14 14 14 14 14 14 14 14 14
14 14 15 15 14 14 14 14 13 13 12 12 12 12 12 12 12 12 12 12 12 12 12 12 12 12 12 13 13 14 14 14 14 14 14 14 14 14 14 14 14 14 14
14 14 15 15 14 14 14 14 13 13 12 12 11 11 12 12 12 12 11 11 11 11 11 11 11 11 12 12 13 13 13 13 13 13 14 14 14 14 14 14 14 14 13
14 14 14 15 14 14 14 13 13 12 12 12 12 11 11 11 11 11 11 11 11 11 11 11 11 11 11 12 12 12 13 13 13 13 13 13 13 14 14 14 14 13 13
14 14 14 15 15 14 14 14 13 13 12 12 12 11 11 11 11 11 11 10 10 10 10 10 10 11 11 11 12 12 12 12 12 12 13 13 13 13 13 13 13 13 13
14 14 15 15 15 15 14 14 13 13 13 13 12 12 11 11 11 11 10 10 10 10 10 10 10 10 11 11 11 12 12 12 12 12 12 12 12 12 13 13 13 13 12
15 15 15 15 15 15 15 14 14 13 13 13 13 12 11 11 11 11 10 10 10 10 10 10 10 10 10 11 11 11 11 11 11 11 11 11 12 12 12 12 12 12 12
15 15 15 15 15 15 15 14 14 14 14 13 13 12 11 11 11 10 10 10 10 10 10 10 10 10 10 10 10 11 11 11 11 11 11 11 11 11 11 11 11 11 11
15 15 15 15 15 15 15 15 14 14 14 13 13 12 12 11 11 10 10 10 10 10 10 10 10 10 10 10 10 10 10 10 10 10 10 10 10 10 10 10 10 10 10
Wind_Speed
12 11 11 11 11 11 11 9 6 4 5 5 5 6 6 4 5 4 5 5 3 3 4 3 3 2 2 2 1 1 0 0 0 1 2 2 3 4 4 2 2 3 8
12 12 11 11 12 12 12 12 10 7 4 4 7 6 6 5 4 4 5 5 5 3 2 3 2 2 2 1 2 2 1 1 1 2 1 2 3 4 4 4 3 3 5
13 13 12 12 11 12 12 11 11 9 6 4 4 6 5 4 3 4 4 4 4 3 2 2 2 3 3 3 5 5 5 4 4 3 3 3 4 3 3 5 5 5 4
13 13 12 12 12 12 12 11 11 10 7 3 5 6 6 6 5 4 4 4 3 3 2 1 1 2 3 5 6 7 6 6 6 4 4 5 3 3 2 2 3 6 6
15 14 13 13 13 13 12 11 10 10 8 4 1 4 5 5 5 5 6 5 4 2 2 2 1 2 3 5 6 6 6 6 7 6 4 5 4 4 3 3 3 2 2
16 16 14 12 12 12 12 11 10 10 9 5 3 5 7 8 8 7 6 4 3 2 1 2 2 3 4 5 6 6 6 6 6 6 5 4 3 4 4 4 4 3 3
16 15 15 13 12 12 12 11 11 10 9 7 6 6 8 8 8 7 6 6 4 2 2 2 3 4 4 5 5 5 5 6 6 6 5 5 4 3 2 3 4 3 3
15 15 14 12 12 12 12 12 10 10 10 9 8 7 7 5 5 4 4 4 3 3 4 4 5 5 5 5 4 2 3 3 4 5 4 3 4 4 3 3 3 3 3
16 15 13 12 12 12 11 11 10 10 9 8 7 7 7 6 5 3 2 2 2 3 5 5 5 5 4 3 2 2 3 2 2 2 3 3 3 3 3 3 4 4 3
16 14 13 12 11 10 10 10 9 8 7 7 6 6 5 5 4 3 2 1 1 2 2 4 4 4 4 3 2 1 1 1 2 2 2 2 2 2 2 3 3 4 4
14 12 12 12 11 11 11 10 9 9 8 7 6 5 5 4 4 3 1 1 1 2 4 4 3 3 4 4 3 3 3 2 2 2 3 2 2 2 2 2 3 3 4
12 11 12 12 12 12 11 11 11 10 10 9 7 7 6 5 4 3 2 2 2 3 3 2 1 1 2 2 3 2 3 3 2 2 2 2 2 2 2 2 3 3 4
11 11 11 10 10 10 10 10 10 9 8 8 7 6 6 5 5 4 3 3 3 3 1 0 1 2 1 1 1 2 3 3 3 2 2 2 2 2 2 3 3 2 3
8 8 8 8 8 8 8 8 8 8 8 8 8 7 6 5 5 5 5 5 5 5 4 3 1 1 1 0 1 1 1 1 1 1 1 2 3 2 1 0 1 1 2
9 9 7 7 6 7 7 7 7 7 8 8 8 8 7 6 6 7 7 7 7 8 7 6 5 5 4 5 6 5 3 2 1 0 2 5 6 5 3 2 2 2 0
10 10 9 8 7 7 6 6 7 7 8 9 9 8 8 9 8 8 9 8 8 8 8 8 7 7 7 9 10 7 6 5 3 1 1 5 6 6 4 4 3 2 2
10 10 10 9 8 7 6 6 8 8 9 8 8 9 10 10 10 10 9 9 8 8 8 8 8 7 8 10 9 8 6 6 5 4 1 1 4 4 4 5 4 3 2
9 8 8 8 8 7 7 7 7 8 8 8 9 9 9 9 9 9 9 9 7 7 7 7 7 6 8 11 9 8 5 5 5 4 2 1 3 3 4 1 1 4 4
7 7 7 6 7 8 7 7 8 8 8 8 8 8 8 8 8 8 8 7 7 6 6 6 6 6 7 11 10 8 4 4 4 3 4 5 6 7 6 4 3 2 2
6 6 6 7 7 7 7 8 8 8 8 7 7 7 7 7 8 8 7 6 6 6 5 5 6 6 7 10 12 10 4 4 3 3 5 8 7 6 7 5 4 4 3
6 7 7 5 5 6 6 7 7 7 6 6 6 7 7 6 7 7 6 6 6 6 6 6 6 6 7 9 11 11 5 4 3 3 3 4 6 6 6 5 5 3 4
6 6 6 5 4 5 5 6 5 4 4 4 5 5 6 7 7 6 7 7 7 7 7 7 6 6 7 9 10 10 9 7 5 4 4 4 6 6 6 5 5 6 5
6 5 6 5 3 3 4 4 3 2 2 3 4 5 6 6 7 7 8 7 7 7 6 6 6 6 7 9 12 10 10 9 6 5 6 6 6 5 4 5 6 5 4
6 6 6 6 5 3 2 3 2 2 1 2 4 5 6 6 7 6 6 7 7 7 7 7 7 6 7 8 9 7 7 7 5 4 5 6 7 6 6 5 5 5 5
4 5 6 6 6 3 2 3 2 5 3 4 5 6 5 5 5 6 5 6 6 5 5 5 6 6 7 8 10 8 7 6 6 5 5 5 6 6 6 6 6 6 6
5 6 7 7 7 5 3 3 2 3 4 5 5 4 4 3 3 5 4 7 6 7 9 10 8 5 7 9 12 12 13 13 12 8 7 7 6 6 6 6 6 6 6
Wind_Direction
12 20 9 355 349 346 338 325 316 256 199 173 180 168 172 168 153 149 149 151 126 102 109 127 129 106 103 130 261 283 174 200 246 4 5 330 283 244 182 211 230 185 147
2 11 7 1 357 350 345 336 331 314 272 195 178 176 168 164 160 140 117 109 108 101 108 119 131 136 134 174 241 261 222 232 222 168 150 289 297 283 225 193 205 220 162
2 2 2 2 359 354 347 336 329 318 295 224 173 163 152 147 139 130 120 109 109 108 99 115 145 172 181 200 226 235 220 217 235 218 175 188 224 256 267 216 198 209 186
360 0 360 0 356 355 350 343 338 333 324 278 186 175 168 165 163 151 134 121 111 119 127 124 173 197 203 209 221 224 219 210 221 231 222 217 202 188 260 287 227 204 200
359 359 359 359 355 353 349 347 346 346 342 346 245 169 147 141 132 129 126 119 112 113 123 124 205 231 227 227 227 232 223 213 216 218 219 232 246 233 206 245 277 265 230
358 356 357 359 357 356 353 353 357 358 358 10 46 118 130 133 134 133 133 124 114 99 93 143 213 230 229 232 232 231 225 217 217 220 220 212 215 218 218 221 233 242 257
358 355 357 1 359 0 1 2 10 12 15 31 56 94 114 123 134 141 144 138 134 166 203 216 226 232 230 230 224 216 223 222 218 216 218 217 223 220 216 220 229 234 252
358 358 359 4 2 4 6 6 14 21 25 39 57 74 91 103 112 123 139 144 154 188 204 212 223 229 224 229 214 213 222 227 219 222 216 212 224 214 204 205 211 235 244
358 0 6 9 9 11 11 15 21 26 29 39 57 68 76 85 98 109 119 137 179 205 209 217 208 213 208 224 198 197 211 220 224 234 234 218 223 218 215 210 195 196 220
0 5 10 14 17 16 15 20 22 26 31 38 46 63 67 75 82 95 104 117 250 241 217 221 210 193 177 185 167 193 154 201 198 194 249 238 225 220 217 213 213 201 204
3 12 17 18 17 17 19 21 21 23 25 31 40 48 51 57 57 51 27 343 297 269 261 247 229 178 165 167 158 185 161 219 226 200 217 228 213 197 213 214 216 213 201
12 16 18 19 19 20 21 23 23 26 23 25 31 35 36 36 29 1 322 310 283 263 258 256 246 146 131 147 156 166 162 196 217 216 209 214 200 206 214 216 222 219 209
16 17 17 20 18 22 22 22 21 21 20 22 26 30 27 25 14 355 346 337 321 313 305 336 84 98 109 132 146 174 190 202 207 204 209 200 176 207 207 212 217 223 227
14 21 18 17 21 25 25 24 22 22 27 27 23 25 28 19 8 353 351 2 2 359 359 2 14 105 143 151 240 237 206 220 199 209 195 122 106 75 44 185 212 210 218
19 20 21 16 24 29 24 25 27 31 36 35 30 25 26 22 17 13 13 15 10 7 3 5 13 27 31 30 23 3 356 347 13 314 90 95 99 93 75 64 35 26 38
21 15 16 16 24 31 30 32 34 39 44 42 32 25 29 28 22 22 25 16 16 11 7 12 23 27 33 32 26 9 349 338 331 315 144 147 147 143 143 138 119 79 56
20 11 9 12 20 26 31 51 45 41 41 42 39 30 30 30 26 24 22 16 21 22 17 19 23 33 35 23 13 5 338 320 323 324 322 124 125 153 171 183 189 184 174
15 5 1 10 14 19 32 53 58 51 42 35 38 37 34 30 27 26 20 16 20 23 22 22 19 25 27 17 5 350 317 300 303 313 338 41 91 66 47 62 201 174 175
10 356 353 12 15 15 26 45 51 49 43 37 38 38 36 32 27 23 17 14 14 17 21 22 19 21 25 16 6 353 309 301 308 344 31 53 73 60 38 9 12 61 110
10 355 354 15 14 13 27 40 46 43 38 34 37 40 42 41 34 23 13 11 14 12 17 22 23 28 26 20 15 7 343 339 347 30 64 63 71 58 36 15 26 41 13
16 3 356 5 4 8 32 44 42 43 42 37 38 37 32 45 47 29 16 14 16 18 21 24 24 34 32 18 17 14 10 356 3 42 59 56 62 58 44 39 47 41 353
20 6 347 345 356 10 28 55 47 35 46 49 52 56 47 38 39 36 25 22 18 21 25 23 22 23 29 24 11 16 22 14 36 48 51 56 59 60 53 55 46 20 4
18 357 335 332 353 31 34 44 58 22 37 53 63 60 64 64 43 34 32 28 25 22 21 21 21 22 22 14 9 15 26 33 48 57 60 62 61 60 65 51 34 25 30
9 351 338 342 352 19 49 64 29 318 308 84 85 77 61 62 57 38 36 40 25 18 15 18 19 23 28 15 4 5 20 30 42 61 66 59 51 52 55 49 39 44 43
0 349 340 336 335 358 36 91 39 323 349 62 74 88 84 81 83 69 45 43 53 33 18 10 20 22 24 8 9 21 21 16 26 38 49 46 43 43 41 40 38 38 36
2 0 354 340 335 358 9 90 99 330 10 58 55 67 93 86 106 118 98 56 56 48 48 43 43 56 33 16 21 25 28 33 41 53 52 47 45 45 42 39 36 35 31
Height
1515 1514 1513 1512 1510 1509 1508 1508 1508 1509 1510 1511 1514 1515 1517 1519 1521 1524 1526 1528 1531 1533 1535 1536 1538 1540 1542 1544 1546 1548 1549 1551 1552 1553 1553 1554 1555 1555 1556 1556 1557 1557 1557
1517 1515 1514 1512 1510 1508 1506 1505 1504 1505 1506 1506 1508 1510 1512 1515 1518 1520 1521 1524 1526 1529 1531 1532 1534 1537 1539 1541 1543 1545 1546 1548 1549 1550 1551 1551 1553 1553 1553 1554 1555 1555 1555
1518 1516 1514 1512 1509 1507 1505 1503 1501 1501 1501 1502 1503 1505 1507 1510 1513 1514 1516 1518 1521 1524 1526 1528 1531 1533 1535 1537 1539 1541 1542 1544 1545 1547 1548 1548 1548 1549 1550 1551 1552 1553 1553
1519 1517 1514 1511 1509 1506 1503 1500 1498 1497 1496 1497 1499 1500 1500 1503 1506 1509 1511 1514 1517 1519 1522 1525 1527 1529 1531 1533 1535 1537 1538 1540 1541 1543 1544 1546 1546 1548 1547 1549 1549 1550 1551
1520 1517 1514 1511 1508 1505 1501 1498 1495 1493 1492 1493 1494 1495 1497 1498 1501 1504 1507 1510 1512 1516 1518 1520 1523 1525 1527 1530 1532 1533 1534 1535 1537 1539 1540 1542 1543 1544 1545 1546 1547 1547 1548
1521 1517 1514 1510 1507 1503 1500 1497 1494 1492 1490 1489 1490 1491 1493 1495 1497 1499 1502 1505 1508 1512 1514 1516 1519 1522 1524 1526 1528 1529 1531 1532 1533 1534 1536 1537 1539 1539 1541 1542 1543 1544 1545
1522 1517 1513 1509 1506 1503 1500 1497 1494 1492 1490 1488 1488 1489 1491 1493 1495 1498 1500 1502 1505 1508 1510 1513 1516 1519 1521 1522 1524 1526 1527 1528 1529 1530 1532 1533 1535 1536 1537 1539 1539 1540 1541
1522 1518 1513 1510 1507 1504 1501 1498 1496 1493 1491 1490 1489 1490 1491 1493 1495 1497 1499 1501 1503 1506 1508 1511 1513 1516 1518 1520 1521 1523 1524 1525 1526 1527 1528 1529 1531 1532 1533 1534 1536 1536 1537
1523 1518 1514 1511 1508 1505 1503 1500 1497 1495 1493 1492 1492 1491 1492 1493 1495 1497 1499 1500 1502 1505 1507 1509 1512 1514 1516 1518 1519 1520 1522 1522 1523 1524 1525 1526 1527 1528 1529 1530 1532 1533 1533
1524 1519 1516 1512 1509 1507 1505 1502 1500 1498 1496 1495 1494 1494 1494 1495 1497 1498 1500 1501 1503 1505 1507 1509 1511 1513 1515 1516 1517 1518 1519 1520 1521 1522 1523 1523 1524 1524 1525 1526 1528 1529 1530
1527 1523 1519 1515 1512 1509 1507 1505 1503 1501 1500 1499 1498 1498 1498 1499 1500 1501 1502 1503 1505 1506 1508 1509 1511 1513 1514 1515 1516 1517 1517 1518 1519 1520 1520 1521 1521 1521 1522 1523 1524 1525 1526
1531 1526 1522 1519 1516 1513 1510 1508 1506 1505 1504 1502 1502 1502 1502 1503 1503 1504 1505 1505 1506 1507 1508 1509 1511 1512 1513 1514 1515 1516 1516 1517 1518 1518 1519 1519 1519 1519 1520 1520 1521 1521 1522
1535 1531 1527 1523 1520 1517 1514 1512 1510 1508 1507 1506 1505 1505 1505 1505 1505 1505 1506 1506 1507 1507 1508 1509 1510 1511 1512 1514 1515 1515 1516 1516 1517 1517 1518 1518 1518 1518 1518 1518 1518 1518 1519
1539 1535 1532 1528 1525 1522 1519 1516 1514 1512 1510 1509 1508 1507 1507 1506 1506 1506 1506 1507 1507 1508 1508 1509 1510 1511 1512 1513 1513 1514 1515 1516 1516 1517 1517 1517 1517 1517 1517 1517 1517 1517 1517
1542 1539 1536 1532 1529 1526 1524 1521 1519 1516 1514 1512 1511 1510 1509 1508 1508 1507 1507 1507 1507 1508 1508 1508 1509 1510 1511 1511 1512 1513 1514 1515 1516 1516 1516 1516 1516 1516 1516 1516 1516 1516 1516
1545 1542 1539 1536 1533 1530 1528 1525 1523 1520 1518 1516 1514 1512 1511 1509 1509 1508 1507 1507 1507 1507 1507 1507 1508 1508 1509 1510 1511 1512 1513 1514 1515 1515 1515 1515 1515 1515 1515 1515 1515 1515 1515
1548 1545 1542 1539 1537 1534 1532 1529 1527 1524 1522 1519 1517 1515 1513 1512 1510 1509 1508 1508 1507 1507 1506 1506 1506 1506 1507 1507 1508 1509 1511 1512 1513 1513 1514 1514 1515 1515 1515 1515 1515 1515 1515
1549 1547 1545 1542 1540 1537 1535 1533 1530 1527 1525 1523 1520 1518 1516 1514 1512 1511 1510 1509 1508 1507 1507 1506 1506 1506 1506 1506 1506 1507 1508 1509 1511 1512 1512 1513 1513 1514 1514 1515 1515 1515 1515
1551 1549 1547 1545 1543 1540 1538 1535 1533 1530 1528 1525 1523 1521 1519 1516 1515 1513 1512 1510 1509 1508 1508 1507 1506 1505 1505 1504 1504 1505 1506 1507 1508 1509 1510 1511 1511 1513 1513 1514 1514 1514 1515
1552 1550 1548 1547 1544 1542 1540 1538 1536 1533 1531 1529 1526 1524 1522 1519 1517 1515 1514 1513 1511 1510 1509 1508 1507 1506 1505 1504 1504 1504 1505 1505 1507 1508 1508 1509 1510 1511 1512 1512 1513 1513 1514
1553 1551 1549 1548 1546 1544 1542 1540 1538 1536 1534 1531 1529 1527 1525 1522 1520 1518 1516 1515 1514 1512 1511 1510 1509 1508 1507 1505 1505 1504 1504 1505 1505 1506 1507 1508 1509 1509 1510 1511 1512 1512 1513
1553 1551 1550 1548 1547 1545 1543 1541 1539 1538 1536 1534 1532 1530 1527 1525 1523 1521 1519 1517 1516 1515 1514 1512 1511 1510 1509 1507 1506 1506 1505 1505 1506 1506 1506 1507 1508 1509 1509 1510 1511 1512 1512
1554 1552 1550 1549 1547 1546 1544 1543 1541 1540 1538 1536 1534 1532 1530 1528 1525 1523 1521 1519 1518 1517 1515 1514 1513 1512 1511 1509 1508 1507 1507 1507 1507 1507 1507 1507 1508 1509 1509 1510 1511 1511 1511
1554 1552 1551 1549 1548 1546 1545 1543 1542 1541 1539 1538 1536 1534 1533 1530 1528 1526 1524 1522 1520 1519 1518 1517 1516 1515 1513 1511 1510 1509 1509 1508 1508 1508 1508 1509 1509 1510 1510 1511 1511 1511 1511
1554 1553 1551 1549 1548 1547 1545 1544 1542 1541 1541 1540 1538 1536 1534 1533 1531 1529 1527 1525 1524 1522 1521 1520 1518 1517 1515 1514 1513 1512 1511 1511 1510 1510 1510 1510 1511 1511 1511 1511 1512 1512 1512
1555 1553 1551 1549 1548 1547 1546 1544 1543 1542 1542 1540 1539 1538 1536 1535 1533 1532 1531 1529 1527 1526 1524 1523 1521 1520 1519 1517 1516 1515 1514 1513 1513 1513 1512 1512 1512 1513 1513 1513 1513 1513 1513